Regional Weather Roundup
Issued by NWS

Home | Current Version | Previous Version | Graphics & Text | Print | Product List | Glossary On
Versions: 1 2 3 4 5 6 7 8 9 10 11 12 13 14 15 16 17 18 19 20 21 22 23 24 25 26 27 28 29 30 31 32 33 34 35 36 37 38 39 40 41 42 43 44 45 46 47 48 49 50
000
ASUS44 KMEG 180910
RWRTN
TENNESSEE HOURLY STATE WEATHER ROUNDUP
NATIONAL WEATHER SERVICE MEMPHIS TN
300 AM CST WED JAN 18 2017

TNZ002-004-019-021-049-052-054-088>092-181000-
WEST TENNESSEE

CITY           SKY/WX    TMP DP  RH WIND       PRES   REMARKS
MEMPHIS INTL   MOCLDY    47  41  80 N5        30.19S
NWS MEMPHIS      N/A     44 N/A N/A MISG        N/A
JACKSON        CLEAR     42  40  92 N3        30.19R
DYERSBURG      CLEAR     37  36  93 NW3       30.20R
UNION CITY     CLOUDY    43  43 100 CALM      30.18S
PARIS          CLOUDY    41  37  87 CALM      30.17R
HUNTINGDON     CLOUDY    45  43  93 CALM      30.18R
$$

TNZ008-025-027-028-033-062-065-066-181000-
NORTH MIDDLE TENNESSEE

CITY           SKY/WX    TMP DP  RH WIND       PRES   REMARKS
NASHVILLE      CLOUDY    48  41  76 NW8       30.16S
PORTLAND       CLOUDY    45  41  87 N7        30.16S
CLARKSVILLE    CLOUDY    45  38  76 MISG      30.17S
SMYRNA         CLOUDY    48  43  82 N8        30.17S
GALLATIN       CLOUDY    46  41  81 NW7       30.19F
CROSSVILLE     CLOUDY    47  44  90 W9        30.12R
$$

TNZ061-075-076-078-094-096-097-181000-
SOUTH MIDDLE TENNESSEE

CITY           SKY/WX    TMP DP  RH WIND       PRES   REMARKS
FAYETTEVILLE   CLOUDY    52  48  87 N9        30.14S
TULLAHOMA      CLOUDY    48  45  87 CALM      30.14F
WINCHESTER     CLOUDY    50  46  87 NW5       30.15R
MCMINNVILLE    CLOUDY    50  46  87 W3        30.14R
COLUMBIA       CLOUDY    48  48 100 NW3       30.15R
SHELBYVILLE    MOCLDY    50  46  87 W5        30.16S
$$

TNZ017-018-042-046-047-181000-
NORTHEAST TENNESSEE

CITY           SKY/WX    TMP DP  RH WIND       PRES   REMARKS
TRI CITIES     CLOUDY    56  48  74 W8        30.03S
ELIZABETHTON   DRIZZLE   57  52  82 W5G13     30.03S
$$

TNZ012-013-036-069-073-074-181000-
CENTRAL EAST TENNESSEE

CITY           SKY/WX    TMP DP  RH WIND       PRES   REMARKS
KNOXVILLE      CLOUDY    56  54  93 SW8       30.07S
OAK RIDGE      CLOUDY    56  48  74 VRB7      30.08S
GATLINBURG     CLOUDY    55  54  94 SW8       30.07S
MORRISTOWN     CLOUDY    55  54  94 NW7       30.05R
JACKSBORO      CLOUDY    54  45  71 VRB3      30.12R
$$

TNZ083-085-099-181000-
SOUTHEAST TENNESSEE

CITY           SKY/WX    TMP DP  RH WIND       PRES   REMARKS
CHATTANOOGA    LGT RAIN  62  55  77 W8        30.11R
$$

SKY/WX REPORTED AS FAIR MEANS FEW OR NO CLOUDS BELOW
12 THOUSAND FEET.





USA.gov is the U.S. government's official web portal to all federal, state and local government web resources and services.